Weather Roundup
Issued by NWS

Home | Current Version | Previous Version | Text Only | Print | Product List | Glossary On
Versions: 1 2 3 4 5 6 7 8 9 10 11 12 13 14 15 16 17 18 19 20 21 22 23 24 25 26 27 28 29 30 31 32 33 34 35 36 37 38 39 40 41 42 43 44 45 46 47 48 49 50
063
NZUS93 KARX 071659
HRRWXR

CURRENT HOURLY OBSERVATIONS ACROSS
MUCH OF THE UPPER MISSISSIPPI VALLEY
NATIONAL WEATHER SERVICE LA CROSSE WI
1100 AM CST WED DEC 07 2016


...SOUTHEAST MINNESOTA...


CITY           SKY/WX    TMP DP  RH WIND       PRES   REMARKS
ROCHESTER      FLURRIES  15  10  80 W23       30.04S WCI  -3
ROCHESTER/MAYO CLOUDY    17  10  75 W23G32    30.04F WCI  -1
WINONA         SUNNY     21  12  68 W13G20    30.07S WCI   9
AUSTIN         FLURRIES  16  10  79 W21       30.08R WCI  -2
ALBERT LEA     CLOUDY    19  10  68 W15G28    30.10R WCI   5
DODGE CENTER     N/A     16  10  79 W25G31    30.05R WCI  -3
PRESTON        LGT SNOW  15   9  77 W15       30.07R WCI  -1
OWATONNA       CLOUDY    16   9  73 W21       30.08R WCI  -2
FARIBAULT      CLOUDY    18  10  73 SW14G23   30.08S WCI   4
$$

...ELSEWHERE IN MINNESOTA...


CITY           SKY/WX    TMP DP  RH WIND       PRES   REMARKS
MINNEAPOLIS    FLURRIES  19   9  65 W16G26    30.04S WCI   4
INTNL FALLS    SNOW      23  20  88 W12G17    29.68R VSB 1/2 WCI  12
DULUTH         LGT SNOW  17  11  77 W23G29    29.76R BLWGSNOWWCI  -1
RED WING       FLURRIES  19   9  63 W14G29    30.04S WCI   6
REDWOOD FALLS  CLOUDY    18   5  57 W22G32    30.13S WCI   1
MANKATO        FLURRIES  15   8  73 W16G26    30.11S WCI  -1
WORTHINGTON    SUNNY     14   7  73 W28G36    30.15R WCI  -6
FAIRMONT       MOSUNNY   17   8  67 W23       30.14S WCI  -1
$$

...SOUTHWEST WISCONSIN...


CITY           SKY/WX    TMP DP  RH WIND       PRES   REMARKS
LA CROSSE      MOSUNNY   22  12  65 SW13      30.08S WCI  10
PRAIRIE DU CHI MOSUNNY   19  10  67 W15       30.13S WCI   5
BOSCOBEL       PTSUNNY   21  11  65 W10G18    30.11F WCI  10
LONE ROCK      NOT AVBL
PLATTEVILLE    MOSUNNY   19  13  77 W18       30.10S WCI   4
FORT MC COY    FLURRIES  19  13  76 W10G18    30.05S WCI   8
MAUSTON-NEW LI CLOUDY    20  13  73 W12G21    30.02S WCI   8
VIROQUA        CLOUDY    16  11  78 W15G23    30.04S WCI   2
WIS DELLS      MOSUNNY   19  12  72 W14       30.02S WCI   6
$$

...ELSEWHERE IN WISCONSIN...


CITY           SKY/WX    TMP DP  RH WIND       PRES   REMARKS
MILWAUKEE      PTSUNNY   28  15  58 W14G22    30.02S WCI  17
MADISON        CLOUDY    20  12  71 W9        30.04S WCI   9
GREEN BAY      FLURRIES  25  16  68 W24G36    29.92F WCI   9
EAU CLAIRE     NOT AVBL
BLACK RVR FLS  FLURRIES  22  12  64 W13G18    30.01S WCI  10
MEDFORD        LGT SNOW  16  10  78 W17G24    29.88R WCI   0
WAUSAU         FLURRIES  19  12  74 W16G24    29.89S WCI   4
WIS RAPIDS     PTSUNNY   21  13  71 W13G22    29.97S WCI   9
MARSHFIELD     CLOUDY    19  11  70 W18G26    29.91S WCI   4
RICE LAKE      FLURRIES  18  11  73 SW15G23   29.96R WCI   4
$$

...NORTHEAST IOWA...


CITY           SKY/WX    TMP DP  RH WIND       PRES   REMARKS
WATERLOO       PTSUNNY   18  10  71 W14       30.17S WCI   4
DUBUQUE        PTSUNNY   17  11  77 W17       30.12S WCI   1
DECORAH        PTSUNNY   16   9  73 VRB7G20   30.09S WCI   6
MASON CITY     SUNNY     17   8  67 W20G31    30.14F WCI   1
CHARLES CITY   FLURRIES  16  10  79 W17       30.13S WCI   0
OELWEIN        FLURRIES  16  12  86 W17       30.14S WCI   0
$$

...ELSEWHERE IN IOWA...


CITY           SKY/WX    TMP DP  RH WIND       PRES   REMARKS
DES MOINES     CLOUDY    22  10  60 NW17      30.24S WCI   8
IOWA CITY      MOSUNNY   24  15  68 W15       30.21S WCI  11
FORT DODGE     PTSUNNY   18   9  68 W15G21    30.21S WCI   3
MARSHALLTOWN   CLOUDY    19  12  74 W20       30.20S WCI   3
CEDAR RAPIDS   MOSUNNY   20  15  81 W18       30.17S WCI   5
$$

...NORTHERN ILLINOIS...


CITY           SKY/WX    TMP DP  RH WIND       PRES   REMARKS
CHICAGO-OHARE  PTSUNNY   26  17  68 W13G20    30.09F WCI  15
CHICAGO-MIDWAY PTSUNNY   28  18  66 SW10      30.11F WCI  19
MOLINE         SUNNY     28  16  60 NW14      30.16F WCI  17
ROCKFORD       CLOUDY    24  15  68 W16       30.11F WCI  11
PEORIA         SUNNY     31  19  61 W9        30.19S WCI  23
$$

NOTE: "FAIR" INDICATES FEW OR NO CLOUDS BELOW 12,000 FEET WITH NO
SIGNIFICANT WEATHER AND/OR OBSTRUCTIONS TO VISIBILITY. WIND
SPEEDS ARE IN MILES-PER-HOUR.




USA.gov is the U.S. government's official web portal to all federal, state and local government web resources and services.